When you browse on this site, cookies collect data to enhance your experience and personalize the content and advertising you see.
Visit our Privacy Policy to learn more. By continuing to use the site, you agree to this use of cookies and data.
  • In Hungary
  • List of Countries
  • For 7 days
  • Water Temperature
  • Satellite Maps
  • Weather Map
  • News
  • Weather Widgets
  • user-avatar
    Login

    Hourly Weather Needham

    Today, 20 July, Saturday

    Time Temperature Precipitation Wind Pressure Humidity
    00:00 +28°C° 0 mm 3 mps 752 mmHg 84%
    01:00 +27°C° 0 mm 2 mps 752 mmHg 83%
    02:00 +27°C° 0 mm 2 mps 752 mmHg 84%
    03:00 +27°C° 0 mm 2 mps 752 mmHg 84%
    04:00 +27°C° 0 mm 2 mps 752 mmHg 84%
    05:00 +28°C° 0 mm 2 mps 752 mmHg 79%
    06:00 +29°C° 0 mm 3 mps 753 mmHg 75%
    07:00 +30°C° 0 mm 3 mps 753 mmHg 70%
    08:00 +31°C° 0 mm 3 mps 753 mmHg 62%
    09:00 +34°C° 0 mm 2 mps 753 mmHg 54%
    10:00 +36°C° 0 mm 2 mps 753 mmHg 46%
    11:00 +37°C° 0 mm 2 mps 753 mmHg 44%
    12:00 +38°C° 0 mm 2 mps 752 mmHg 42%
    13:00 +39°C° 0 mm 3 mps 752 mmHg 40%
    14:00 +39°C° 0 mm 3 mps 752 mmHg 41%
    15:00 +39°C° 0 mm 3 mps 751 mmHg 42%
    16:00 +39°C° 0 mm 3 mps 751 mmHg 42%
    17:00 +37°C° 0 mm 3 mps 751 mmHg 49%
    18:00 +36°C° 0 mm 3 mps 751 mmHg 56%
    19:00 +34°C° 0 mm 2 mps 752 mmHg 63%
    20:00 +33°C° 0 mm 3 mps 752 mmHg 64%
    21:00 +31°C° 0 mm 3 mps 752 mmHg 66%
    22:00 +31°C° 0 mm 3 mps 752 mmHg 67%
    23:00 +30°C° 0.1 mm 3 mps 752 mmHg 72%

    Tomorrow, 21 July, Sunday

    Time Temperature Precipitation Wind Pressure Humidity
    00:00 +29°C° 0.1 mm 3 mps 751 mmHg 77%
    01:00 +28°C° 0.1 mm 3 mps 751 mmHg 82%
    02:00 +28°C° 0 mm 3 mps 751 mmHg 82%
    03:00 +28°C° 0 mm 3 mps 751 mmHg 82%
    04:00 +28°C° 0 mm 3 mps 751 mmHg 82%
    05:00 +28°C° 0 mm 3 mps 751 mmHg 79%
    06:00 +29°C° 0 mm 3 mps 751 mmHg 76%
    07:00 +30°C° 0 mm 2 mps 752 mmHg 73%
    08:00 +31°C° 0 mm 3 mps 752 mmHg 66%
    09:00 +34°C° 0 mm 4 mps 752 mmHg 59%
    10:00 +35°C° 0 mm 4 mps 752 mmHg 53%
    11:00 +36°C° 0 mm 4 mps 752 mmHg 48%
    12:00 +37°C° 0 mm 5 mps 751 mmHg 43%
    13:00 +40°C° 0 mm 5 mps 751 mmHg 38%
    14:00 +40°C° 0 mm 5 mps 751 mmHg 38%
    15:00 +40°C° 0 mm 5 mps 751 mmHg 38%
    16:00 +40°C° 0 mm 5 mps 750 mmHg 38%
    17:00 +36°C° 0.2 mm 5 mps 751 mmHg 49%
    18:00 +33°C° 0.2 mm 5 mps 751 mmHg 59%
    19:00 +29°C° 0.2 mm 5 mps 752 mmHg 70%
    20:00 +29°C° 0.1 mm 5 mps 752 mmHg 71%
    21:00 +28°C° 0.1 mm 4 mps 752 mmHg 73%
    22:00 +28°C° 0.1 mm 4 mps 752 mmHg 74%
    23:00 +27°C° 0 mm 3 mps 752 mmHg 69%

    Day after tomorrow, 22 July, Monday

    Time Temperature Precipitation Wind Pressure Humidity
    00:00 +27°C° 0 mm 3 mps 753 mmHg 65%
    01:00 +26°C° 0 mm 2 mps 753 mmHg 60%
    02:00 +25°C° 0 mm 2 mps 753 mmHg 60%
    03:00 +25°C° 0 mm 2 mps 753 mmHg 60%
    04:00 +24°C° 0 mm 2 mps 753 mmHg 61%
    05:00 +25°C° 0 mm 1 mps 754 mmHg 59%
    06:00 +26°C° 0 mm 1 mps 754 mmHg 58%
    07:00 +27°C° 0 mm 1 mps 755 mmHg 56%
    08:00 +29°C° 0 mm 1 mps 755 mmHg 51%
    09:00 +31°C° 0 mm 1 mps 754 mmHg 46%
    10:00 +33°C° 0 mm 1 mps 754 mmHg 40%
    11:00 +33°C° 0 mm 1 mps 754 mmHg 41%
    12:00 +33°C° 0 mm 1 mps 754 mmHg 41%
    13:00 +34°C° 0 mm 2 mps 754 mmHg 41%
    14:00 +31°C° 0 mm 2 mps 754 mmHg 48%
    15:00 +29°C° 0 mm 2 mps 754 mmHg 54%
    16:00 +27°C° 0 mm 3 mps 754 mmHg 61%
    17:00 +26°C° 0.1 mm 2 mps 754 mmHg 67%
    18:00 +25°C° 0.1 mm 2 mps 753 mmHg 74%
    19:00 +24°C° 0.1 mm 2 mps 753 mmHg 80%
    20:00 +24°C° 0.1 mm 2 mps 753 mmHg 83%
    21:00 +23°C° 0.1 mm 2 mps 753 mmHg 85%
    22:00 +23°C° 0.1 mm 1 mps 752 mmHg 87%
    23:00 +22°C° 0.3 mm 1 mps 752 mmHg 89%

    23 July, Tuesday

    Time Temperature Precipitation Wind Pressure Humidity
    00:00 +22°C° 0.3 mm 1 mps 752 mmHg 90%
    01:00 +22°C° 0.3 mm 1 mps 751 mmHg 92%
    02:00 +22°C° 0.2 mm 1 mps 751 mmHg 92%
    03:00 +22°C° 0.2 mm 1 mps 751 mmHg 93%
    04:00 +22°C° 0.2 mm 1 mps 751 mmHg 93%
    05:00 +21°C° 0.6 mm 1 mps 751 mmHg 94%
    06:00 +21°C° 0.6 mm 1 mps 751 mmHg 94%
    07:00 +21°C° 0.6 mm 1 mps 751 mmHg 94%
    08:00 +20°C° 5.6 mm 2 mps 751 mmHg 95%
    09:00 +20°C° 5.6 mm 3 mps 751 mmHg 95%
    10:00 +19°C° 5.6 mm 4 mps 751 mmHg 96%
    11:00 +19°C° 4.5 mm 4 mps 751 mmHg 94%
    12:00 +19°C° 4.5 mm 3 mps 751 mmHg 93%
    13:00 +18°C° 4.5 mm 3 mps 752 mmHg 91%
    14:00 +19°C° 0 mm 3 mps 752 mmHg 88%
    15:00 +19°C° 0 mm 3 mps 752 mmHg 85%
    16:00 +19°C° 0 mm 3 mps 753 mmHg 82%
    17:00 +19°C° 0 mm 2 mps 753 mmHg 82%
    18:00 +19°C° 0 mm 2 mps 754 mmHg 82%
    19:00 +19°C° 0 mm 1 mps 754 mmHg 81%
    20:00 +19°C° 0 mm 1 mps 754 mmHg 83%
    21:00 +18°C° 0 mm 1 mps 755 mmHg 85%
    22:00 +16°C° 0 mm 0 mps 755 mmHg 87%
    23:00 +18°C° 0 mm 1 mps 755 mmHg 88%

    24 July, Wednesday

    Time Temperature Precipitation Wind Pressure Humidity
    00:00 +18°C° 0 mm 1 mps 755 mmHg 88%
    01:00 +18°C° 0 mm 1 mps 755 mmHg 88%
    02:00 +18°C° 0 mm 1 mps 755 mmHg 88%
    03:00 +15°C° 0 mm 0 mps 755 mmHg 89%
    04:00 +15°C° 0 mm 0 mps 755 mmHg 89%
    05:00 +17°C° 0 mm 0 mps 756 mmHg 84%
    06:00 +18°C° 0 mm 0 mps 756 mmHg 80%
    07:00 +21°C° 0 mm 1 mps 756 mmHg 76%
    08:00 +21°C° 0 mm 0 mps 756 mmHg 70%
    09:00 +23°C° 0 mm 0 mps 756 mmHg 64%
    10:00 +26°C° 0 mm 0 mps 757 mmHg 58%
    11:00 +28°C° 0.5 mm 1 mps 756 mmHg 57%
    12:00 +28°C° 0.5 mm 1 mps 756 mmHg 56%
    13:00 +28°C° 0.5 mm 1 mps 756 mmHg 56%
    14:00 +28°C° 0.1 mm 2 mps 756 mmHg 57%
    15:00 +27°C° 0.1 mm 2 mps 756 mmHg 58%
    16:00 +27°C° 0.1 mm 2 mps 756 mmHg 59%
    17:00 +25°C° 0.2 mm 2 mps 756 mmHg 66%
    18:00 +24°C° 0.2 mm 2 mps 757 mmHg 73%
    19:00 +22°C° 0.2 mm 1 mps 757 mmHg 80%
    20:00 +22°C° 0.2 mm 1 mps 757 mmHg 79%
    21:00 +21°C° 0.2 mm 1 mps 758 mmHg 79%
    22:00 +20°C° 0.2 mm 1 mps 758 mmHg 79%
    23:00 +20°C° 0 mm 1 mps 758 mmHg 76%

    25 July, Thursday

    Time Temperature Precipitation Wind Pressure Humidity
    00:00 +18°C° 0 mm 2 mps 758 mmHg 73%
    01:00 +18°C° 0 mm 2 mps 758 mmHg 70%
    02:00 +17°C° 0 mm 2 mps 759 mmHg 70%
    03:00 +17°C° 0 mm 2 mps 759 mmHg 70%
    04:00 +16°C° 0 mm 2 mps 759 mmHg 70%
    05:00 +17°C° 0 mm 2 mps 760 mmHg 67%
    06:00 +18°C° 0 mm 2 mps 760 mmHg 65%
    07:00 +19°C° 0 mm 2 mps 761 mmHg 62%
    08:00 +21°C° 0 mm 2 mps 761 mmHg 56%
    09:00 +23°C° 0 mm 2 mps 761 mmHg 49%
    10:00 +25°C° 0 mm 2 mps 761 mmHg 43%
    11:00 +26°C° 0 mm 1 mps 761 mmHg 42%
    12:00 +28°C° 0 mm 1 mps 761 mmHg 40%
    13:00 +29°C° 0 mm 1 mps 761 mmHg 39%
    14:00 +28°C° 0 mm 1 mps 761 mmHg 43%
    15:00 +27°C° 0 mm 1 mps 761 mmHg 47%
    16:00 +26°C° 0 mm 2 mps 761 mmHg 51%
    17:00 +24°C° 0 mm 2 mps 761 mmHg 56%
    18:00 +23°C° 0 mm 2 mps 762 mmHg 60%
    19:00 +21°C° 0 mm 2 mps 762 mmHg 65%
    20:00 +20°C° 0 mm 2 mps 762 mmHg 69%
    21:00 +19°C° 0 mm 2 mps 763 mmHg 72%
    22:00 +19°C° 0 mm 2 mps 763 mmHg 76%
    23:00 +19°C° 0 mm 1 mps 763 mmHg 78%
    Show more